Location: Burbank
(38.7788°N, 114.0429°W)
Time: 00:09:49
(UTC+00:00)

Altair - Visible Passes

Search period start: 12 May 2026 00:00
Search period end: 22 May 2026 00:00
Orbit: 1501 x 1682 km, 47.2° (Epoch: 11 May)

Date Brightness Start Highest point End Pass type
(mag) Time Alt. Az. Time Alt. Az. Time Alt. Az.
12 May 8.4 11:56:24 10° SSW 12:05:37 46° SE 12:15:04 10° ENE visible
13 May 8.5 11:31:25 10° SSW 11:40:26 43° SE 11:49:42 10° ENE visible
14 May 8.5 11:06:28 10° SSW 11:15:15 39° SE 11:24:17 10° ENE visible
15 May 8.6 10:42:21 13° S 10:50:06 36° SE 10:58:52 10° ENE visible
16 May 8.6 10:18:35 16° S 10:24:57 32° SE 10:33:25 10° ENE visible
17 May 8.7 09:54:45 19° S 09:59:48 29° SE 10:07:55 10° ENE visible
18 May 8.7 09:30:52 21° SSE 09:34:40 26° SE 09:42:24 10° ENE visible
18 May 7.7 11:28:52 11° SW 11:38:24 80° SE 11:48:32 10° ENE visible
19 May 8.7 09:06:56 21° SSE 09:09:33 24° SE 09:16:50 10° ENE visible
19 May 7.7 11:04:56 16° SW 11:13:09 76° SE 11:23:15 10° ENE visible
20 May 8.8 08:42:56 20° SE 08:44:26 21° SE 08:51:12 10° E visible
20 May 7.7 10:40:56 22° SW 10:47:55 71° SE 10:57:55 10° ENE visible
21 May 8.9 08:18:53 19° SE 08:19:20 19° ESE 08:25:29 10° E visible
21 May 7.7 10:16:53 27° SW 10:22:41 66° SE 10:32:36 10° ENE visible
